Simultaneous Nadir Overpasses (SNOs) Predictions

Prediction of SNOs between AQUA and GOES-15 Satellite Orbit:

Table of predicted SNOs for the next 14.0 days since TLE Epoch: 11/10/2017
Index Date Time (AQUA) AQUA Lat,Lon GOES-15 Lat,Lon Distance(km) Time Diff (sec)
1 11/11/2017 22:22:38 0.52,-131.88 -0.08,-134.66 315.69 80
2 11/12/2017 10:43:54 0.56,-137.04 0.06,-134.78 258.12 80
3 11/14/2017 10:31:44 -0.09,-134.09 0.06,-134.87 87.44 80
4 11/16/2017 10:19:34 -0.74,-131.14 0.07,-134.95 432.72 80
5 11/16/2017 22:40:58 -0.38,-136.33 -0.05,-134.87 166.46 80
6 11/18/2017 22:28:48 0.29,-133.38 -0.05,-134.95 178.29 80
7 11/19/2017 10:50:04 0.80,-138.54 0.03,-135.07 395.59 80
8 11/21/2017 10:37:54 0.13,-135.60 0.04,-135.14 51.68 80
9 11/23/2017 10:25:43 -0.50,-132.64 0.04,-135.21 291.62 80
10 11/23/2017 22:47:07 -0.61,-137.83 -0.02,-135.12 308.21 80




NCC Satellite Simultaneous Nadir Overpasses (SNOs) Prediction Service
